Location: Camps Bay
(33.9517°S, 18.3844°E)
Time: 17:07:30
(UTC+00:00)

Cosmos 1980 Rocket - Pass Details

Date: 18 January 2020
Orbit: 831 x 848 km, 71.0° (Epoch: 26 February)

Event Time Altitude Azimuth Distance (km) Brightness Sun altitude
Rises 03:12:43 0° 211° (SSW) 3,428 5.4 -8.2°
Reaches altitude 10° 03:15:20 10° 219° (SW) 2,488 4.6 -7.7°
Maximum altitude 03:20:31 36° 284° (WNW) 1,316 2.8 -6.8°
Drops below altitude 10° 03:25:39 10° 349° (N) 2,468 4.3 -5.9°
Sets 03:28:15 0° 357° (N) 3,396 5.0 -5.4°
